Home > Weather > Freiburg > Past weeks

Flag for Germany Past Weather in Freiburg, Baden-Württemberg, Germany — Yesterday and Last 2 Weeks

Now
83 °F

Sunny.


Feels Like: 84 °F
Forecast: 62 / 91 °F
Wind: 2 mph from Northwest

Location: Freiburg

Current Time: Aug 25, 2016 at 1:50:01 PM

Latest Report: Aug 25, 2016 at 1:00 PM


Visibility: 25 mi

Pressure: 30.02 "Hg

Humidity: 49%

Dew Point: 62 °F

Location of FreiburgLocation

Past Weather in Freiburg — Graph

°F

Freiburg Temperature Yesterday

Maximum temperature yesterday: 86 °F (at 6:00 PM)
Minimum temperature yesterday: 55 °F (at 7:00 AM)
Average temperature yesterday: 72 °F

High & Low Weather Summary for the Past Weeks

 TemperatureHumidityPressure
High86 °F (Aug 24, 6:00 PM)100% (Aug 24, 6:00 AM)30.37 "Hg (Aug 24, 6:00 AM)
Low42 °F (Aug 11, 7:00 AM)40% (Aug 10, 6:00 PM)29.80 "Hg (Aug 17, 7:00 PM)
Average67 °F72%30.11 "Hg
* Reported Aug 10 12:00 PM — Aug 25 12:00 PM, Freiburg, Weather by CustomWeather, © 2016

Note: Actual official high and low records may vary slightly from our data, if they occured in-between our weather recording intervals... More about our weather records

Advertising

Freiburg Weather History for the Previous 24 Hours

Scroll right to see more
 ConditionsComfort  
Time TempWeatherWind HumidityBarometerVisibility
12:00 PM
Thu, Aug 25
81 °FSunny.1 mph54%30.05 "Hg28 mi
10:00 AM74 °FSunny.1 mph60%30.06 "Hg25 mi
9:00 AM70 °FSunny.1 mph64%30.07 "Hg31 mi
7:00 AM57 °FSunny.No wind93%30.09 "Hg25 mi
6:00 AM58 °FClear.1 mph92%30.07 "Hg28 mi
4:00 AM60 °FClear.No wind88%30.08 "Hg25 mi
3:00 AM64 °FClear.No wind85%30.08 "Hg28 mi
1:00 AM73 °FClear.1 mph59%30.06 "Hg43 mi
12:00 AM78 °FClear.3 mph51%30.07 "Hg43 mi
10:00 PM
Wed, Aug 24
71 °FClear.1 mph80%30.09 "Hg34 mi
9:00 PM76 °FClear.1 mph68%30.08 "Hg9 mi
7:00 PM85 °FSunny.3 mph50%30.05 "Hg40 mi
6:00 PM86 °FSunny.3 mph47%30.06 "Hg43 mi
4:00 PM85 °FSunny.2 mph48%30.09 "Hg31 mi
3:00 PM84 °FSunny.3 mph47%30.11 "Hg40 mi
1:00 PM80 °FSunny.2 mph53%30.14 "Hg34 mi
Weather by CustomWeather, © 2016

See weather overviewHow to use our weather pages